Home   Weather   Teresina   Past weeks

Flag for Brazil Past Weather in Teresina, Piauí, Brazil — Yesterday and Last 2 Weeks

Now
75 °F

Clear.


Feels Like: 76 °F
Forecast: 73 / 95 °F
Wind: No wind

Location: Teresina Aeroporto

Current Time: Jul 22, 2018 at 5:24:31 am

Latest Report: Jul 22, 2018 at 4:00 am


Visibility: 10 mi

Pressure: 29.86 "Hg

Humidity: 78%

Dew Point: 68 °F

Location of TeresinaLocation

Past Weather in Teresina — Graph

°F

Teresina Temperature Yesterday

Maximum temperature yesterday: 93 °F (at 1:00 pm)
Minimum temperature yesterday: 70 °F (at 5:00 am)
Average temperature yesterday: 82 °F

High & Low Weather Summary for the Past Weeks

 TemperatureHumidityPressure
High95 °F (Jul 19, 2:00 pm)100% (Jul 8, 5:00 am)30.04 "Hg (Jul 8, 5:00 am)
Low70 °F (Jul 17, 6:00 am)25% (Jul 19, 5:00 pm)29.80 "Hg (Jul 19, 4:00 pm)
Average82 °F63%29.93 "Hg
* Reported Jul 7 4:00 am — Jul 22 4:00 am, Teresina. Weather by CustomWeather, © 2018

Note: Actual official high and low records may vary slightly from our data, if they occured in-between our weather recording intervals... More about our weather records

Advertising

Teresina Weather History for the Previous 24 Hours

Scroll right to see more
 ConditionsComfort  
Time TempWeatherWind HumidityBarometerVisibility
4:00 am
Sun, Jul 22
75 °FClear.No wind78%29.86 "Hg10 mi
3:00 am77 °FClear.3 mph74%29.86 "Hg10 mi
2:00 am77 °FClear.5 mph69%29.89 "Hg10 mi
1:00 am79 °FClear.5 mph65%29.89 "Hg10 mi
12:00 am77 °FClear.3 mph74%29.89 "Hg10 mi
11:00 pm
Sat, Jul 21
79 °FClear.No wind74%29.89 "Hg10 mi
10:00 pm81 °FClear.2 mph66%29.89 "Hg10 mi
9:00 pm82 °FClear.No wind58%29.86 "Hg10 mi
8:00 pm84 °FClear.3 mph55%29.86 "Hg10 mi
7:00 pm86 °FClear.3 mph49%29.83 "Hg10 mi
6:00 pm90 °FClear.3 mph38%29.83 "Hg10 mi
5:00 pm93 °FSunny.6 mph32%29.83 "Hg10 mi
4:00 pm93 °FScattered clouds.5 mph32%29.83 "HgN/A
3:00 pm93 °FScattered clouds.7 mph32%29.83 "HgN/A
2:00 pm91 °FScattered clouds.7 mph34%29.86 "HgN/A
1:00 pm93 °FPassing clouds.9 mph34%29.89 "HgN/A
12:00 pm90 °FPassing clouds.10 mph41%29.92 "HgN/A
11:00 am88 °FPassing clouds.10 mph40%29.95 "HgN/A
10:00 am86 °FSunny.8 mph43%29.98 "Hg10 mi
9:00 am82 °FSunny.10 mph58%29.98 "Hg10 mi
8:00 am77 °FSunny.7 mph69%29.95 "Hg10 mi
7:00 am72 °FSunny.8 mph83%29.95 "Hg10 mi
6:00 am70 °FClear.2 mph88%29.92 "Hg10 mi
5:00 am70 °FClear.No wind88%29.92 "Hg10 mi
Weather by CustomWeather, © 2018

See weather overview